Погода в Генуе

Италия     44°24′27″N   8°56′58″E
темп.,
°C
ветер,
м/с
пор.,
м/с
влажн.,
%
обл.,
%
осадки,
мм/ч
давл.,
гПа
погр.,
м
12 апреля, пн
пн1223:00+7с2396100 0.1 1019127
02:00+7ссз2397100 0.7 1018148
05:00+7ссв1298100 0.9 101696
08:00+8с1198100 1.6 1016130
11:00+7ссз2298100 0.9 1016187
14:00+7ссз2497100 2.9 1015233
17:00+7ссз3596100 0.5 1014361
20:00+6с3696100 0.9 1015232
13 апреля, вт
вт1323:00+5с469583 0.1 1016217
02:00+3с47903 0.1 1017152
05:00+2с458540 0.0 101897
08:00+2с478029 0.0 1019215
11:00+8ссз46553 0.0 1020811
14:00+11сз45494 0.0 10191585
17:00+11сз23533 0.0 10191244
20:00+6ссз11827 0.0 102115
14 апреля, ср
ср1423:00+4ссв228414 0.0 102326
02:00+3ссв22760 0.0 102432
05:00+2ссв22812 0.0 102436
08:00+4с127630 0.0 102473
11:00+9юз115547 0.0 10231186
14:00+8ююз217290 0.4 1022964
17:00+7ю118185 0.8 1021534
20:00+5св118835 0.9 102111
15 апреля, чт
чт1523:00+4с229122 0.3 102227
02:00+3с239312 0.3 102254
05:00+2с34957 0.0 102170
08:00+3с349267 0.0 1021165
11:00+7сз217558 0.2 1021681
14:00+9сз126957 1.4 10201068
17:00+9ссз126483 0.7 10181021
20:00+5ссз11835 0.8 101912
16 апреля, пт
пт1623:00+3с23914 0.0 102152
02:00+2с33927 0.0 102059
05:00+2с349320 0.0 101992
08:00+3с358815 0.0 1019215
11:00+8ссз336522 0.0 1018834
14:00+10сз335981 0.2 10171202
17:00+10ссз235967 0.3 10161086
20:00+7с227813 0.4 101636